EW7070 Weather Reports


Display with metric or nautical units.
time (UTC)temp
F
wind
direction
speed
MPH
gust
MPH
rain 1hr
in
rain 24hr
in
rain mn
in
humidity
%
barometer
mb
20260506092836 64 130 0.0 2.0 0.00 0.00 0.00 99 1015.8
20260506092336 64 106 0.0 3.0 0.00 0.00 0.00 99 1015.7
20260506091832 64 106 1.0 3.0 0.00 0.00 0.00 99 1015.6
20260506091335 64 99 1.0 3.0 0.00 0.00 0.00 99 1015.7
20260506091329 63 275 0.0 2.0 0.00 0.00 0.00 99 1015.6
20260506090326 63 349 1.0 2.0 0.00 0.00 0.00 99 1015.6
20260506085819 63 268 1.0 3.0 0.00 0.00 0.00 99 1015.4
20260506085252 63 51 0.0 0.0 0.00 0.00 0.00 99 1015.5
20260506084738 63 51 0.0 0.0 0.00 0.00 0.00 98 1015.5
20260506084238 63 51 0.0 0.0 0.00 0.00 0.00 98 1015.5
20260506083724 63 51 0.0 0.0 0.00 0.00 0.00 98 1015.4
20260506083202 63 51 0.0 0.0 0.00 0.00 0.00 98 1015.6
20260506082935 63 51 0.0 0.0 0.00 0.00 0.00 98 1015.5
20260506082159 63 51 0.0 0.0 0.00 0.00 0.00 98 1015.4
20260506081657 63 51 0.0 0.0 0.00 0.00 0.00 99 1015.4
20260506081155 63 51 0.0 0.0 0.00 0.00 0.00 99 1015.4
20260506080652 63 51 0.0 0.0 0.00 0.00 0.00 99 1015.3
20260506080152 63 51 0.0 0.0 0.00 0.00 0.00 98 1015.4
20260506073103 62 32 0.0 2.0 0.00 0.00 0.00 98 1015.7
20260506072538 62 32 0.0 2.0 0.00 0.00 0.00 98 1015.8
20260506072031 62 32 0.0 0.0 0.00 0.01 0.00 98 1015.9
20260506071530 63 32 0.0 0.0 0.00 0.01 0.00 98 1016.0
20260506071031 63 32 0.0 0.0 0.00 0.01 0.00 98 1016.0
20260506070515 63 32 0.0 0.0 0.00 0.01 0.00 98 1016.0
20260506070243 63 32 0.0 0.0 0.00 0.01 0.00 98 1015.9
20260506062400 63 32 0.0 0.0 0.00 0.01 0.00 98 1016.2
20260506061901 63 32 0.0 0.0 0.00 0.01 0.00 98 1016.3
20260506061359 63 32 0.0 0.0 0.00 0.01 0.00 98 1016.2
20260506060857 63 32 0.0 0.0 0.00 0.01 0.00 98 1016.4
20260506060331 63 32 0.0 0.0 0.00 0.01 0.00 98 1016.4
20260506051052 63 32 0.0 0.0 0.00 0.01 0.00 97 1016.4
20260506050524 63 32 0.0 0.0 0.00 0.01 0.00 97 1016.3
20260506045011 63 32 0.0 0.0 0.00 0.01 0.00 97 1016.2
20260506044509 63 93 0.0 0.0 0.00 0.01 0.00 97 1016.3
20260506043942 64 93 0.0 0.0 0.00 0.01 0.00 97 1016.3
20260506043439 64 311 0.0 0.0 0.00 0.01 0.00 97 1016.2
20260506042920 64 311 0.0 0.0 0.00 0.01 0.00 97 1016.2
20260506042415 64 311 0.0 0.0 0.00 0.01 0.00 97 1016.1
20260506041912 64 311 0.0 0.0 0.00 0.01 0.00 97 1015.9
20260506041354 64 311 0.0 0.0 0.00 0.01 0.00 98 1015.9
20260506040848 64 311 0.0 1.0 0.00 0.01 0.00 97 1016.0
20260506040348 64 311 0.0 1.0 0.00 0.01 0.00 97 1016.0
20260506040054 65 311 0.0 0.0 0.00 0.01 0.00 97 1016.0
20260506035308 65 311 0.0 1.0 0.00 0.01 0.00 97 1015.8
20260506034806 65 311 0.0 1.0 0.00 0.01 0.00 97 1015.8
20260506034019 65 311 0.0 2.0 0.00 0.01 0.00 97 1015.8
20260506033220 65 24 0.0 1.0 0.00 0.01 0.00 97 1015.8
20260506032720 65 105 0.0 1.0 0.00 0.01 0.00 97 1015.8
20260506032219 65 105 0.0 0.0 0.00 0.01 0.00 97 1015.7
20260506031721 65 105 0.0 0.0 0.00 0.01 0.00 97 1015.7
20260506031156 65 105 0.0 0.0 0.00 0.01 0.00 97 1015.8
20260506030700 65 105 0.0 0.0 0.00 0.01 0.00 97 1015.8
20260506030202 65 105 0.0 0.0 0.00 0.01 0.00 97 1015.7
20260506025923 65 105 0.0 1.0 0.00 0.01 0.01 97 1015.6
20260506025133 65 105 0.0 1.0 0.00 0.01 0.01 97 1015.7
20260506024623 65 328 0.0 2.0 0.00 0.01 0.01 97 1015.5
20260506024110 65 328 0.0 2.0 0.00 0.01 0.01 97 1015.6
20260506023541 65 328 0.0 2.0 0.00 0.01 0.01 97 1015.7
20260506023042 65 328 0.0 0.0 0.00 0.01 0.01 96 1015.7
20260506022810 65 328 0.0 1.0 0.00 0.01 0.01 96 1015.6
20260506022039 65 328 0.0 1.0 0.00 0.01 0.01 96 1015.5
20260506021537 66 303 0.0 0.0 0.00 0.01 0.01 96 1015.5
20260506021029 66 303 0.0 0.0 0.00 0.01 0.01 96 1015.4
20260506020801 66 303 0.0 0.0 0.00 0.01 0.01 96 1015.4
20260506020029 66 303 0.0 0.0 0.00 0.01 0.01 96 1015.5
20260506015521 66 303 0.0 0.0 0.00 0.01 0.01 96 1015.7
20260506015021 66 303 0.0 0.0 0.00 0.01 0.01 96 1015.8
20260506014518 66 303 0.0 0.0 0.00 0.01 0.01 96 1015.9
20260506014013 66 303 0.0 0.0 0.00 0.01 0.01 96 1015.9
20260506013503 67 303 0.0 0.0 0.00 0.01 0.01 96 1016.0
20260506013231 67 303 0.0 0.0 0.00 0.01 0.01 96 1016.0
20260506012727 67 303 0.0 0.0 0.00 0.01 0.01 95 1015.9
20260506011959 67 303 0.0 0.0 0.00 0.01 0.01 95 1016.0
20260506011432 67 303 0.0 0.0 0.00 0.01 0.01 95 1015.9
20260506010910 67 303 0.0 0.0 0.00 0.01 0.01 96 1015.9
20260506010401 67 303 0.0 0.0 0.00 0.01 0.01 95 1015.9
20260506005846 67 303 0.0 0.0 0.00 0.01 0.01 95 1015.9
20260506005337 67 303 0.0 0.0 0.00 0.01 0.01 95 1015.8
20260506004836 68 303 0.0 0.0 0.00 0.01 0.01 95 1015.8
20260506004308 68 303 0.0 0.0 0.00 0.01 0.01 94 1015.6
20260506003745 68 303 0.0 0.0 0.00 0.01 0.01 94 1015.6
20260506003241 68 303 0.0 0.0 0.00 0.01 0.01 94 1015.6
20260506002739 68 303 0.0 0.0 0.00 0.01 0.01 94 1015.5
20260506002234 68 303 0.0 0.0 0.00 0.01 0.01 94 1015.6
20260506001733 68 303 0.0 0.0 0.00 0.01 0.01 94 1015.5
20260506001441 69 303 0.0 0.0 0.00 0.01 0.01 94 1015.5
20260506000712 69 303 0.0 0.0 0.00 0.01 0.01 93 1015.6
20260506000211 69 303 0.0 0.0 0.00 0.01 0.01 93 1015.5
20260505235942 69 303 0.0 0.0 0.00 0.01 0.01 93 1015.5
20260505235205 69 303 0.0 0.0 0.00 0.01 0.01 93 1015.5
20260505234701 69 303 0.0 0.0 0.00 0.01 0.01 94 1015.4
20260505234131 69 303 0.0 0.0 0.00 0.01 0.01 93 1015.5
20260505233607 70 303 0.0 0.0 0.00 0.01 0.01 92 1015.4
20260505233102 70 303 0.0 0.0 0.00 0.01 0.01 92 1015.4
20260505232830 70 303 0.0 0.0 0.00 0.01 0.01 93 1015.3
20260505232049 70 303 0.0 0.0 0.00 0.01 0.01 93 1015.2
20260505231525 71 303 0.0 0.0 0.00 0.01 0.01 93 1015.2
20260505231005 71 303 0.0 0.0 0.00 0.01 0.01 93 1015.2
20260505230504 71 303 0.0 0.0 0.00 0.01 0.01 94 1015.1
20260505230005 71 303 0.0 0.0 0.00 0.01 0.01 93 1015.2
20260505225501 71 303 0.0 0.0 0.00 0.01 0.01 93 1015.1
20260505224950 71 303 0.0 0.0 0.00 0.01 0.01 93 1015.3
20260505224422 71 303 0.0 0.0 0.00 0.01 0.01 93 1015.3
20260505223857 71 303 0.0 0.0 0.00 0.01 0.01 93 1015.3
20260505223355 72 303 0.0 0.0 0.00 0.01 0.01 92 1015.3
20260505222825 72 303 0.0 0.0 0.00 0.01 0.01 91 1015.1
20260505222324 72 303 0.0 0.0 0.00 0.01 0.01 91 1015.3
20260505222043 72 303 0.0 0.0 0.00 0.01 0.01 91 1015.3
20260505221544 72 303 0.0 0.0 0.00 0.02 0.01 91 1015.3
20260505220808 73 303 0.0 0.0 0.00 0.02 0.01 91 1015.3
20260505220305 73 303 0.0 0.0 0.00 0.02 0.01 91 1015.2
20260505220029 73 303 0.0 0.0 0.00 0.02 0.01 91 1015.3
20260505215256 73 303 0.0 0.0 0.00 0.02 0.01 90 1015.3
20260505214730 74 303 0.0 0.0 0.00 0.02 0.01 89 1015.2
20260505214201 74 303 0.0 0.0 0.00 0.02 0.01 90 1015.1
20260505213903 74 303 0.0 0.0 0.00 0.02 0.01 89 1015.1
20260505213336 75 303 0.0 0.0 0.00 0.02 0.01 88 1015.1
20260505212559 75 303 0.0 0.0 0.00 0.02 0.01 88 1015.0
20260505212052 76 303 0.0 0.0 0.00 0.02 0.01 87 1015.0
20260505211528 76 303 0.0 0.0 0.00 0.02 0.01 85 1014.9
20260505211022 77 303 0.0 0.0 0.00 0.02 0.01 85 1014.9
20260505210501 77 303 0.0 0.0 0.00 0.02 0.01 84 1014.9
20260505210002 78 303 0.0 0.0 0.00 0.02 0.01 83 1014.9
20260505205503 78 303 0.0 0.0 0.00 0.02 0.01 82 1014.8
20260505205009 79 303 1.0 2.0 0.00 0.02 0.01 81 1014.7
20260505205001 79 303 0.0 1.0 0.00 0.02 0.01 82 1014.8
20260505203930 80 303 1.0 3.0 0.00 0.02 0.01 80 1014.6
20260505203400 81 303 1.0 3.0 0.00 0.02 0.01 78 1014.7
20260505202834 82 288 0.0 2.0 0.00 0.02 0.01 77 1014.7
20260505202318 83 288 0.0 2.0 0.00 0.02 0.01 75 1014.6
20260505201818 84 288 1.0 3.0 0.00 0.02 0.01 73 1014.7
20260505201319 85 288 1.0 3.0 0.00 0.02 0.01 72 1014.7
20260505200804 87 271 1.0 2.0 0.00 0.02 0.01 70 1014.7
20260505200304 89 17 0.0 1.0 0.00 0.02 0.01 66 1014.8
20260505195806 90 17 0.0 0.0 0.00 0.02 0.01 65 1014.7
20260505195740 90 17 0.0 0.0 0.00 0.02 0.01 63 1014.7
20260505194711 91 17 0.0 0.0 0.00 0.02 0.01 63 1014.7
20260505194202 91 17 0.0 2.0 0.00 0.02 0.01 60 1014.6
20260505193658 90 17 0.0 2.0 0.00 0.02 0.01 62 1014.6
20260505193154 91 332 0.0 4.0 0.00 0.02 0.01 63 1014.6
20260505192650 90 86 0.0 4.0 0.00 0.02 0.01 60 1014.6
20260505192128 90 56 0.0 0.0 0.00 0.02 0.01 62 1014.6
20260505191628 90 56 0.0 0.0 0.00 0.02 0.01 63 1014.7
20260505191125 90 26 0.0 1.0 0.00 0.02 0.01 60 1014.6
20260505190826 91 337 0.0 1.0 0.00 0.02 0.01 63 1014.7
20260505190054 90 337 0.0 3.0 0.00 0.02 0.01 62 1014.6
20260505185552 90 69 1.0 4.0 0.00 0.02 0.01 61 1014.6
20260505185054 90 52 1.0 4.0 0.00 0.02 0.01 61 1014.6
20260505184535 90 114 1.0 3.0 0.00 0.02 0.01 60 1014.6
20260505184036 90 51 1.0 3.0 0.00 0.02 0.01 61 1014.7
20260505183509 91 308 1.0 7.0 0.00 0.02 0.01 61 1014.7
20260505183213 90 234 1.0 7.0 0.00 0.02 0.01 60 1014.7
20260505182419 90 301 0.0 6.0 0.00 0.02 0.01 60 1014.6
20260505181908 90 7 1.0 5.0 0.00 0.02 0.01 62 1014.7
20260505181401 90 327 2.0 5.0 0.00 0.02 0.01 62 1014.7
20260505180856 90 348 1.0 5.0 0.00 0.02 0.01 64 1014.7
20260505180602 90 310 1.0 5.0 0.00 0.02 0.01 61 1014.7
20260505180055 90 322 1.0 5.0 0.00 0.03 0.01 62 1014.7
20260505175312 90 265 1.0 8.0 0.00 0.03 0.01 63 1014.7
20260505174812 90 347 2.0 8.0 0.00 0.03 0.01 63 1014.8
20260505174312 90 320 2.0 7.0 0.00 0.03 0.01 63 1014.7
20260505173747 89 27 2.0 7.0 0.00 0.03 0.01 62 1014.8
20260505173219 89 328 2.0 7.0 0.00 0.03 0.01 62 1014.8
20260505172713 89 335 2.0 6.0 0.00 0.03 0.01 63 1014.9
20260505172211 89 25 2.0 7.0 0.00 0.03 0.01 65 1014.8
20260505171642 89 315 3.0 7.0 0.00 0.03 0.01 63 1014.9
20260505171140 89 264 3.0 6.0 0.00 0.03 0.01 64 1015.1
20260505170630 89 287 3.0 8.0 0.00 0.03 0.01 65 1015.2
20260505170129 89 299 3.0 8.0 0.00 0.03 0.01 64 1015.2
20260505165616 89 42 2.0 7.0 0.00 0.03 0.01 64 1015.1
20260505165118 88 29 2.0 7.0 0.00 0.03 0.01 64 1015.2
20260505164614 88 357 2.0 7.0 0.00 0.03 0.01 64 1015.3
20260505164112 88 289 2.0 7.0 0.00 0.03 0.01 65 1015.4
20260505163559 87 29 4.0 8.0 0.00 0.03 0.01 67 1015.4
20260505163056 87 22 4.0 9.0 0.00 0.03 0.01 66 1015.5
20260505162553 87 316 4.0 9.0 0.00 0.03 0.01 65 1015.6
20260505162310 87 299 5.0 10.0 0.00 0.03 0.01 66 1015.7
20260505161812 87 18 4.0 10.0 0.00 0.03 0.01 67 1015.8
20260505161040 87 341 4.0 9.0 0.00 0.03 0.01 66 1015.8
20260505160539 86 299 4.0 9.0 0.00 0.03 0.01 66 1015.9
20260505152938 85 293 3.0 9.0 0.00 0.03 0.01 69 1016.4
20260505152428 85 343 4.0 9.0 0.00 0.03 0.01 70 1016.4
20260505151904 85 349 3.0 9.0 0.00 0.03 0.01 70 1016.5
20260505151402 84 301 3.0 9.0 0.00 0.03 0.01 70 1016.5
20260505150842 84 348 5.0 11.0 0.00 0.03 0.01 70 1016.6
20260505150337 84 286 5.0 10.0 0.00 0.03 0.01 69 1016.6
20260505140626 82 316 3.0 7.0 0.00 0.03 0.01 72 1017.3
20260505140128 82 305 3.0 9.0 0.00 0.03 0.01 74 1017.2
20260505124825 78 264 1.0 6.0 0.00 0.03 0.01 82 1017.1
20260505124324 77 289 1.0 7.0 0.00 0.03 0.01 81 1017.1
20260505123821 76 353 1.0 7.0 0.00 0.03 0.01 83 1016.9
20260505123256 76 16 1.0 4.0 0.00 0.03 0.01 83 1016.9
20260505122734 75 305 2.0 4.0 0.00 0.03 0.01 83 1016.9
20260505122500 75 319 2.0 6.0 0.00 0.03 0.01 83 1017.0
20260505121724 75 297 3.0 6.0 0.00 0.03 0.01 83 1016.8
20260505121448 75 306 2.0 6.0 0.00 0.03 0.01 83 1016.7
20260505120716 74 302 1.0 5.0 0.00 0.03 0.01 84 1016.8
20260505120147 74 336 1.0 5.0 0.00 0.03 0.01 85 1016.7
20260505115647 74 120 0.0 2.0 0.00 0.03 0.01 85 1016.7
20260505115139 73 148 1.0 5.0 0.00 0.03 0.01 85 1016.6
20260505115131 74 120 1.0 5.0 0.00 0.03 0.01 86 1016.7
20260505114129 73 127 0.0 1.0 0.00 0.03 0.01 87 1016.5
20260505113637 72 40 0.0 0.0 0.00 0.03 0.01 89 1016.4
20260505113629 72 55 0.0 1.0 0.00 0.03 0.01 88 1016.6
20260505112627 71 45 0.0 0.0 0.00 0.03 0.01 90 1016.4
20260505112124 71 126 0.0 0.0 0.00 0.03 0.01 90 1016.4
20260505111852 70 126 0.0 0.0 0.00 0.03 0.01 92 1016.3
20260505111115 70 91 0.0 0.0 0.00 0.03 0.01 92 1016.3
20260505110617 69 91 0.0 1.0 0.00 0.03 0.01 92 1016.2
20260505110111 69 103 1.0 3.0 0.00 0.03 0.01 92 1016.0
20260505101524 67 265 3.0 7.0 0.00 0.03 0.01 95 1015.7
20260505101023 66 274 1.0 7.0 0.00 0.03 0.01 95 1015.5
20260505100523 66 297 0.0 3.0 0.00 0.03 0.01 94 1015.4
20260505100516 66 79 0.0 0.0 0.00 0.03 0.01 93 1015.4
20260505100246 66 79 0.0 0.0 0.00 0.03 0.01 93 1015.4
20260505095742 66 79 0.0 4.0 0.00 0.03 0.01 94 1015.3
20260505095008 66 79 1.0 4.0 0.00 0.03 0.01 94 1015.3
20260505094507 66 124 1.0 3.0 0.00 0.03 0.01 94 1015.2
20260505093938 67 272 1.0 3.0 0.00 0.03 0.01 93 1015.1
20260505093415 67 171 0.0 2.0 0.00 0.03 0.01 93 1015.1